Weather History for Manistique, MI

Change the Weather History Date:

Friday, February 22, 2013

  Actual Average Record
Temperature  
Mean Temperature 20 °F -  
Max Temperature 28 °F 29 °F 45 °F (1961)
Min Temperature 12 °F 12 °F -18 °F (1963)
Degree Days  
Heating Degree Days 45    
Moisture  
Dew Point 17 °F    
Average Humidity 86    
Maximum Humidity 93    
Minimum Humidity 79    
Precipitation  
Precipitation 0.00 in - - ()
Sea Level Pressure  
Sea Level Pressure 30.03 in    
Wind  
Wind Speed 8 mph (ENE)    
Max Wind Speed 16 mph    
Max Gust Speed 23 mph    
Visibility 6 miles    
Events Snow    
Averages and records for this station are not official NWS values.
T = Trace of Precipitation, MM = Missing Value Source: NWS Daily Summary

Daily Weather History Graph

Daily Weather History Graph

Search for Another Location

Airport:

Trip Planner

Search our weather history database for the weather conditions in past years. The results will help you decide how hot, cold, wet, or windy it might be!

Date:

Astronomy

Feb. 22, 2013 Rise Set
Actual Time 7:35 AM EST 6:21 PM EST
Civil Twilight 7:05 AM EST 6:51 PM EST
Nautical Twilight 6:30 AM EST 7:26 PM EST
Astronomical Twilight 5:55 AM EST 8:01 PM EST
Moon 3:26 PM EST (2/22) 5:27 AM EST (2/22)
Length of Visible Light 11h 46m
Length of Day
10h 46m
Waxing Gibbous, 90% of the Moon is Illuminated
Feb 22
Waxing Gibbous
Feb 25
Full
Mar 4
Last Quarter
Mar 11
New
Mar 19
First Quarter

Hourly Weather History & Observations

Time (EST) Temp. Windchill Dew Point Humidity Pressure Visibility Wind Dir Wind Speed Gust Speed Precip Events Conditions
12:14 AM 12.2 °F 2.9 °F 10.4 °F 92% 30.30 in 10.0 mi ENE 5.8 mph - N/A   Clear
12:35 AM 14.0 °F 3.9 °F 10.4 °F 86% 30.28 in 10.0 mi ENE 6.9 mph - N/A   Clear
12:54 AM 14.0 °F 2.9 °F 10.4 °F 86% 30.28 in 10.0 mi ENE 8.1 mph - N/A   Clear
1:15 AM 14.0 °F 8.2 °F 10.4 °F 86% 30.29 in 10.0 mi East 3.5 mph - N/A   Clear
1:35 AM 15.8 °F 8.6 °F 10.4 °F 79% 30.29 in 10.0 mi East 4.6 mph - N/A   Scattered Clouds
1:54 AM 15.8 °F 7.2 °F 10.4 °F 79% 30.28 in 10.0 mi ENE 5.8 mph - N/A   Mostly Cloudy
2:15 AM 15.8 °F 5.1 °F 10.4 °F 79% 30.27 in 10.0 mi ENE 8.1 mph - N/A   Overcast
2:34 AM 15.8 °F 5.1 °F 12.2 °F 86% 30.26 in 10.0 mi ENE 8.1 mph - N/A   Overcast
2:55 AM 17.6 °F 8.2 °F 12.2 °F 79% 30.25 in 10.0 mi ENE 6.9 mph - N/A   Overcast
3:15 AM 17.6 °F 7.3 °F 12.2 °F 79% 30.24 in 10.0 mi ENE 8.1 mph - N/A   Overcast
3:34 AM 17.6 °F 8.2 °F 14.0 °F 86% 30.23 in 10.0 mi ENE 6.9 mph - N/A   Overcast
3:55 AM 17.6 °F 10.7 °F 14.0 °F 86% 30.22 in 10.0 mi NE 4.6 mph - N/A   Overcast
4:15 AM 17.6 °F 9.3 °F 14.0 °F 86% 30.22 in 10.0 mi NE 5.8 mph - N/A   Overcast
4:35 AM 17.6 °F 8.2 °F 14.0 °F 86% 30.21 in 10.0 mi NE 6.9 mph - N/A   Overcast
4:55 AM 17.6 °F 8.2 °F 14.0 °F 86% 30.20 in 10.0 mi NE 6.9 mph - N/A   Overcast
5:14 AM 17.6 °F 8.2 °F 15.8 °F 93% 30.19 in 10.0 mi NE 6.9 mph - N/A   Overcast
5:35 AM 17.6 °F 9.3 °F 15.8 °F 93% 30.19 in 10.0 mi NE 5.8 mph - N/A   Overcast
5:55 AM 17.6 °F 10.7 °F 15.8 °F 93% 30.18 in 10.0 mi NE 4.6 mph - N/A   Overcast
6:14 AM 17.6 °F 9.3 °F 15.8 °F 93% 30.18 in 10.0 mi NE 5.8 mph - N/A   Overcast
6:35 AM 17.6 °F 9.3 °F 15.8 °F 93% 30.17 in 10.0 mi ENE 5.8 mph - N/A   Overcast
7:15 AM 21.2 °F 9.5 °F 17.6 °F 86% 30.15 in 10.0 mi ENE 11.5 mph - N/A   Overcast
7:54 AM 21.2 °F 8.9 °F 17.6 °F 86% 30.12 in 10.0 mi East 12.7 mph - N/A   Overcast
8:15 AM 21.2 °F 7.3 °F 17.6 °F 86% 30.11 in 10.0 mi ENE 16.1 mph - N/A   Overcast
8:55 AM 21.2 °F 8.3 °F 17.6 °F 86% 30.09 in 10.0 mi ENE 13.8 mph 20.7 mph N/A   Overcast
9:55 AM 19.4 °F 7.2 °F 15.8 °F 86% 30.06 in 10.0 mi ENE 11.5 mph 18.4 mph N/A   Overcast
10:34 AM 19.4 °F 7.2 °F 15.8 °F 86% 30.05 in 5.0 mi ENE 11.5 mph 17.3 mph N/A   Overcast
10:55 AM 19.4 °F 6.0 °F 15.8 °F 86% 30.03 in 2.5 mi ENE 13.8 mph - N/A Snow Light Snow
11:15 AM 19.4 °F 5.5 °F 15.8 °F 86% 30.02 in 0.5 mi ENE 15.0 mph 19.6 mph N/A Snow Snow
11:35 AM 19.4 °F 7.2 °F 15.8 °F 86% 30.01 in 0.5 mi ENE 11.5 mph - N/A Snow Snow
11:54 AM 19.4 °F 6.0 °F 17.6 °F 93% 30.00 in 0.2 mi ENE 13.8 mph - N/A Snow Snow
12:15 PM 21.2 °F 8.3 °F 17.6 °F 86% 30.00 in 0.2 mi ENE 13.8 mph - N/A Snow Snow
12:34 PM 21.2 °F 8.9 °F 17.6 °F 86% 29.99 in 0.2 mi ENE 12.7 mph 20.7 mph N/A Snow Heavy Snow
12:54 PM 21.2 °F 9.5 °F 17.6 °F 86% 29.98 in 0.5 mi ENE 11.5 mph - N/A Snow Snow
1:34 PM 21.2 °F 7.3 °F 17.6 °F 86% 29.97 in 0.8 mi ENE 16.1 mph 21.9 mph N/A Snow Light Snow
1:55 PM 21.2 °F 8.3 °F 17.6 °F 86% 29.96 in 0.5 mi East 13.8 mph 21.9 mph N/A Snow Light Snow
2:15 PM 21.2 °F 8.3 °F 17.6 °F 86% 29.95 in 0.8 mi ENE 13.8 mph 20.7 mph N/A Snow Light Snow
2:34 PM 21.2 °F 8.9 °F 17.6 °F 86% 29.94 in 1.2 mi ENE 12.7 mph 23.0 mph N/A Snow Light Snow
2:55 PM 21.2 °F 8.9 °F 17.6 °F 86% 29.93 in 7.0 mi ENE 12.7 mph - N/A Snow Light Snow
3:14 PM 21.2 °F 9.5 °F 17.6 °F 86% 29.93 in 7.0 mi ENE 11.5 mph - N/A Snow Light Snow
3:35 PM 21.2 °F 9.5 °F 17.6 °F 86% 29.92 in 7.0 mi ENE 11.5 mph 19.6 mph N/A Snow Light Snow
6:35 PM 23.0 °F 12.4 °F 19.4 °F 86% 29.87 in 7.0 mi ENE 10.4 mph - N/A Snow Light Snow
6:54 PM 23.0 °F 13.1 °F 19.4 °F 86% 29.86 in 7.0 mi ENE 9.2 mph - N/A Snow Light Snow
7:15 PM 23.0 °F 13.9 °F 19.4 °F 86% 29.86 in 5.0 mi ENE 8.1 mph - N/A Snow Light Snow
7:34 PM 23.0 °F 15.8 °F 19.4 °F 86% 29.86 in 4.0 mi NE 5.8 mph - N/A Snow Light Snow
7:55 PM 23.0 °F 15.8 °F 19.4 °F 86% 29.85 in 4.0 mi NE 5.8 mph - N/A Snow Light Snow
8:15 PM 24.8 °F 17.9 °F 21.2 °F 86% 29.84 in 3.0 mi NE 5.8 mph - N/A Snow Light Snow
8:34 PM 24.8 °F 19.1 °F 21.2 °F 86% 29.84 in 2.0 mi ENE 4.6 mph - N/A Snow Light Snow
8:55 PM 24.8 °F 19.1 °F 21.2 °F 86% 29.83 in 2.0 mi ENE 4.6 mph - N/A Snow Light Snow
9:14 PM 24.8 °F 16.1 °F 21.2 °F 86% 29.82 in 2.0 mi NE 8.1 mph - N/A Snow Light Snow
9:35 PM 24.8 °F 19.1 °F 21.2 °F 86% 29.82 in 2.0 mi NE 4.6 mph - N/A Snow Light Snow
9:54 PM 24.8 °F 20.5 °F 21.2 °F 86% 29.81 in 2.0 mi NE 3.5 mph - N/A Snow Light Snow
10:15 PM 24.8 °F 19.1 °F 23.0 °F 93% 29.81 in 1.5 mi NE 4.6 mph - N/A Snow Light Snow
10:35 PM 26.6 °F 22.6 °F 23.0 °F 86% 29.80 in 1.8 mi ENE 3.5 mph - N/A Snow Light Snow
10:54 PM 26.6 °F - 24.8 °F 93% 29.79 in 2.0 mi Calm Calm - N/A Snow Light Snow
11:15 PM 28.4 °F 23.3 °F 24.8 °F 86% 29.79 in 2.5 mi South 4.6 mph - N/A Snow Light Snow
11:34 PM 28.4 °F 24.6 °F 24.8 °F 86% 29.79 in 1.0 mi South 3.5 mph - N/A Snow Snow
11:54 PM 28.4 °F 23.3 °F 24.8 °F 86% 29.78 in 1.5 mi SSW 4.6 mph - N/A Snow Light Snow